K4FB Weather Reports


Display with metric or nautical units.
time (UTC)temp
F
wind
direction
speed
MPH
gust
MPH
rain 1hr
in
rain 24hr
in
rain mn
in
humidity
%
barometer
mb
20260906123012 76 198 0.0 0.0 0.00 0.05 0.00 95 1014.8
20260906122506 76 198 0.0 0.0 0.00 0.05 0.00 95 1014.8
20260906122004 76 198 0.0 0.0 0.00 0.05 0.00 94 1014.8
20260906121512 75 198 0.0 0.0 0.00 0.05 0.00 94 1014.8
20260906121006 75 215 0.0 0.0 0.00 0.05 0.00 94 1014.8
20260906120505 75 215 0.0 0.0 0.00 0.05 0.00 95 1014.6
20260906120015 75 215 0.0 0.0 0.00 0.05 0.00 94 1014.7
20260906115503 75 215 0.0 0.0 0.00 0.05 0.00 94 1014.6
20260906115003 74 215 0.0 0.0 0.00 0.05 0.00 94 1014.6
20260906114519 74 215 0.0 0.0 0.00 0.05 0.00 94 1014.5
20260906114004 74 215 0.0 0.0 0.00 0.05 0.00 94 1014.5
20260906113507 74 215 0.0 0.0 0.00 0.05 0.00 94 1014.5
20260906113018 74 215 0.0 0.0 0.00 0.05 0.00 93 1014.3
20260906112507 74 215 0.0 0.0 0.00 0.05 0.00 93 1014.1
20260906112008 74 215 0.0 0.0 0.00 0.05 0.00 93 1014.1
20260906111516 74 215 0.0 0.0 0.00 0.05 0.00 93 1014.0
20260906111007 74 215 0.0 0.0 0.00 0.05 0.00 93 1014.1
20260906110506 74 215 0.0 0.0 0.00 0.05 0.00 93 1014.0
20260906110022 74 215 0.0 0.0 0.00 0.05 0.00 93 1013.8
20260906105506 74 215 0.0 0.0 0.00 0.05 0.00 93 1013.6
20260906105008 74 215 0.0 0.0 0.00 0.05 0.00 93 1013.5
20260906104520 74 215 0.0 0.0 0.00 0.05 0.00 93 1013.6
20260906104004 74 215 0.0 0.0 0.00 0.05 0.00 93 1013.5
20260906103507 74 215 0.0 0.0 0.00 0.05 0.00 93 1013.4
20260906103039 74 215 0.0 0.0 0.00 0.05 0.00 93 1013.3
20260906102511 74 215 0.0 0.0 0.00 0.05 0.00 93 1013.2
20260906102005 74 215 0.0 0.0 0.00 0.05 0.00 93 1013.3
20260906101523 74 215 0.0 0.0 0.00 0.05 0.00 93 1013.2
20260906101011 75 215 0.0 0.0 0.00 0.05 0.00 93 1013.2
20260906100510 75 215 0.0 0.0 0.00 0.05 0.00 93 1013.2
20260906100026 75 215 0.0 0.0 0.00 0.05 0.00 93 1013.2
20260906095507 75 215 0.0 0.0 0.00 0.05 0.00 93 1013.2
20260906095009 75 215 0.0 0.0 0.00 0.05 0.00 93 1012.9
20260906094519 75 215 0.0 0.0 0.00 0.05 0.00 93 1013.0
20260906094008 75 215 0.0 0.0 0.00 0.05 0.00 93 1013.1
20260906093509 75 215 0.0 0.0 0.00 0.05 0.00 92 1013.0
20260906093019 75 215 0.0 0.0 0.00 0.05 0.00 92 1012.9
20260906092507 75 215 0.0 0.0 0.00 0.05 0.00 92 1012.8
20260906092007 75 215 0.0 0.0 0.00 0.05 0.00 92 1012.7
20260906091525 75 215 0.0 0.0 0.00 0.05 0.00 93 1012.6
20260906091008 75 215 0.0 0.0 0.00 0.05 0.00 93 1012.5
20260906090507 75 215 0.0 0.0 0.00 0.05 0.00 93 1012.5
20260906090021 75 215 0.0 0.0 0.00 0.05 0.00 93 1012.4
20260906085512 75 215 0.0 0.0 0.00 0.05 0.00 93 1012.3
20260906085009 75 215 0.0 0.0 0.00 0.05 0.00 92 1012.4
20260906084523 75 215 0.0 0.0 0.00 0.05 0.00 92 1012.5
20260906084010 75 215 0.0 0.0 0.00 0.05 0.00 92 1012.5
20260906083507 75 215 0.0 0.0 0.00 0.05 0.00 92 1012.3
20260906083026 75 215 0.0 0.0 0.00 0.05 0.00 92 1012.3
20260906082508 75 215 0.0 0.0 0.00 0.05 0.00 92 1012.4
20260906082011 75 215 0.0 0.0 0.00 0.05 0.00 92 1012.5
20260906081525 75 215 0.0 0.0 0.00 0.05 0.00 92 1012.7
20260906081008 75 215 0.0 0.0 0.00 0.05 0.00 92 1012.6
20260906080508 75 215 0.0 0.0 0.00 0.05 0.00 92 1012.5
20260906080028 75 215 0.0 0.0 0.00 0.05 0.00 92 1012.4
20260906075511 75 215 0.0 0.0 0.00 0.05 0.00 92 1012.3
20260906075011 75 215 0.0 0.0 0.00 0.05 0.00 91 1012.3
20260906074529 76 215 0.0 0.0 0.00 0.05 0.00 91 1012.5
20260906074011 76 215 0.0 0.0 0.00 0.05 0.00 91 1012.5
20260906073512 76 215 0.0 0.0 0.00 0.05 0.00 91 1012.6
20260906073023 76 215 0.0 0.0 0.00 0.05 0.00 91 1012.7
20260906072510 76 215 0.0 0.0 0.00 0.05 0.00 91 1012.7
20260906072008 76 215 0.0 0.0 0.00 0.05 0.00 91 1012.7
20260906071526 76 214 0.0 0.0 0.00 0.05 0.00 91 1012.7
20260906071010 76 237 0.0 0.0 0.00 0.05 0.00 91 1012.9
20260906070507 76 236 0.0 0.0 0.00 0.05 0.00 91 1013.0
20260906070015 76 238 0.0 0.0 0.00 0.05 0.00 91 1013.0
20260906065508 76 238 0.0 0.0 0.00 0.05 0.00 91 1013.0
20260906065004 76 239 0.0 0.0 0.00 0.05 0.00 91 1013.2
20260906064503 76 232 0.0 0.0 0.00 0.05 0.00 91 1013.4
20260906064004 76 231 0.0 0.0 0.00 0.05 0.00 91 1013.4
20260906063506 76 231 0.0 0.0 0.00 0.05 0.00 91 1013.6
20260906063008 76 232 0.0 0.0 0.00 0.05 0.00 91 1013.7
20260906062504 76 232 0.0 0.0 0.00 0.05 0.00 91 1013.8
20260906062006 76 232 0.0 0.0 0.00 0.05 0.00 91 1013.7
20260906061512 76 232 0.0 0.0 0.00 0.05 0.00 91 1013.7
20260906061004 76 234 0.0 0.0 0.00 0.05 0.00 91 1013.8
20260906060506 76 234 0.0 0.0 0.00 0.05 0.00 90 1013.9
20260906060023 76 234 0.0 0.0 0.00 0.05 0.00 90 1014.0
20260906055503 76 234 0.0 0.0 0.00 0.05 0.00 90 1013.9
20260906055007 76 211 0.0 0.0 0.00 0.05 0.00 90 1014.0
20260906054534 76 210 0.0 0.0 0.00 0.05 0.00 90 1014.1
20260906054003 76 210 0.0 0.0 0.00 0.05 0.00 89 1014.2
20260906053502 76 210 0.0 0.0 0.00 0.05 0.00 89 1014.1
20260906053009 76 210 0.0 0.0 0.00 0.05 0.00 89 1014.1
20260906052503 76 210 0.0 0.0 0.00 0.05 0.00 89 1014.2
20260906052007 77 210 0.0 0.0 0.00 0.05 0.00 89 1014.3
20260906051514 77 210 0.0 0.0 0.00 0.05 0.00 89 1014.2
20260906051007 77 210 0.0 0.0 0.00 0.05 0.00 89 1014.2
20260906050509 77 211 0.0 0.0 0.00 0.05 0.00 89 1014.3
20260906050011 77 211 0.0 0.0 0.00 0.05 0.00 88 1014.3
20260906045509 77 220 0.0 0.0 0.00 0.05 0.00 89 1014.3
20260906045008 77 225 0.0 0.0 0.00 0.05 0.00 89 1014.2
20260906044508 77 230 0.0 0.0 0.00 0.05 0.00 88 1014.3
20260906044007 77 229 0.0 0.0 0.00 0.05 0.00 1014.3
20260906043510 77 228 0.0 0.0 0.00 0.05 0.00 1014.3
20260906043030 78 216 0.0 0.0 0.00 0.05 0.00 1014.3
20260906042504 78 217 0.0 0.0 0.00 0.05 0.00 1014.4
20260906042003 78 205 0.0 0.0 0.00 0.05 0.00 87 1014.4
20260906041507 78 193 0.0 1.0 0.00 0.05 0.00 87 1014.4
20260906041003 78 188 0.0 2.0 0.00 0.05 0.00 87 1014.4
20260906040503 78 184 0.0 2.0 0.00 0.05 0.00 87 1014.5
20260906040016 78 191 0.0 1.0 0.00 0.05 0.00 87 1014.6
20260906035508 78 213 0.0 0.0 0.00 0.05 0.05 88 1014.5
20260906035003 78 190 0.0 0.0 0.00 0.05 0.05 87 1014.5
20260906034521 78 195 0.0 0.0 0.00 0.05 0.05 87 1014.5
20260906034011 78 196 0.0 0.0 0.00 0.05 0.05 87 1014.5
20260906033503 78 201 0.0 1.0 0.00 0.05 0.05 87 1014.5
20260906033015 79 202 0.0 1.0 0.00 0.05 0.05 87 1014.5
20260906032509 79 207 0.0 1.0 0.00 0.05 0.05 87 1014.6
20260906032015 79 190 0.0 4.0 0.00 0.05 0.05 87 1014.7
20260906031512 79 195 0.0 4.0 0.00 0.05 0.05 88 1014.7
20260906031004 79 215 0.0 4.0 0.00 0.05 0.05 88 1014.7
20260906030504 79 196 0.0 4.0 0.00 0.05 0.05 88 1014.7
20260906030012 79 167 0.0 1.0 0.00 0.05 0.05 87 1014.7
20260906025506 79 196 0.0 2.0 0.00 0.05 0.05 87 1014.6
20260906025006 79 192 0.0 2.0 0.00 0.05 0.05 87 1014.7
20260906024517 79 188 0.0 2.0 0.00 0.05 0.05 86 1014.7
20260906024002 79 181 0.0 1.0 0.00 0.05 0.05 86 1014.6
20260906023506 79 144 0.0 1.0 0.00 0.05 0.05 86 1014.7
20260906023025 79 180 0.0 2.0 0.00 0.05 0.05 86 1014.8
20260906022511 79 196 0.0 2.0 0.00 0.05 0.05 86 1014.9
20260906022003 79 148 0.0 1.0 0.00 0.05 0.05 86 1014.9
20260906021537 79 186 0.0 1.0 0.00 0.05 0.05 86 1014.9
20260906021016 79 148 0.0 3.0 0.00 0.05 0.05 86 1014.8
20260906020503 79 177 0.0 3.0 0.00 0.05 0.05 87 1014.7
20260906020021 79 192 0.0 3.0 0.00 0.05 0.05 87 1014.7
20260906015505 79 164 0.0 3.0 0.00 0.05 0.05 87 1014.7
20260906015006 79 159 0.0 2.0 0.00 0.05 0.05 87 1014.7
20260906014519 80 153 0.0 2.0 0.00 0.05 0.05 87 1014.7
20260906014008 80 147 0.0 1.0 0.00 0.05 0.05 87 1014.5
20260906013507 80 147 0.0 1.0 0.00 0.05 0.05 87 1014.5
20260906013032 80 151 0.0 1.0 0.00 0.05 0.05 87 1014.5
20260906012508 80 141 0.0 1.0 0.00 0.05 0.05 86 1014.3
20260906012009 80 128 0.0 1.0 0.00 0.05 0.05 86 1014.2
20260906011532 80 145 0.0 1.0 0.00 0.05 0.05 86 1014.1
20260906011006 80 175 0.0 0.0 0.00 0.05 0.05 86 1014.0
20260906010508 80 175 0.0 0.0 0.00 0.05 0.05 85 1014.0
20260906010034 81 175 0.0 0.0 0.00 0.05 0.05 85 1013.9
20260906005515 81 175 0.0 0.0 0.00 0.05 0.05 84 1013.8
20260906005009 81 175 0.0 0.0 0.00 0.05 0.05 84 1013.9
20260906004517 81 175 0.0 1.0 0.00 0.05 0.05 84 1013.8
20260906004012 81 175 0.0 1.0 0.00 0.05 0.05 84 1013.8
20260906003507 81 175 0.0 0.0 0.00 0.05 0.05 83 1014.0
20260906003025 82 175 0.0 0.0 0.00 0.05 0.05 83 1014.0
20260906002510 82 175 0.0 0.0 0.00 0.05 0.05 82 1013.8
20260906002008 82 175 0.0 0.0 0.00 0.05 0.05 82 1013.9
20260906001521 82 175 0.0 0.0 0.00 0.05 0.05 82 1013.9
20260906001010 83 175 0.0 0.0 0.00 0.05 0.05 82 1014.1
20260906000511 83 175 0.0 0.0 0.00 0.05 0.05 81 1014.0
20260906000022 83 175 0.0 1.0 0.00 0.05 0.05 81 1013.8
20260905235510 84 175 0.0 1.0 0.00 0.05 0.05 80 1013.5
20260905235013 84 171 0.0 1.0 0.00 0.05 0.05 79 1013.6
20260905234532 84 167 0.0 1.0 0.00 0.05 0.05 78 1013.5
20260905234008 85 168 0.0 1.0 0.00 0.05 0.05 78 1013.4
20260905233510 85 171 0.0 1.0 0.00 0.05 0.05 77 1013.4
20260905233018 86 118 0.0 1.0 0.00 0.05 0.05 77 1013.5
20260905232503 86 120 0.0 2.0 0.00 0.05 0.05 76 1013.6
20260905232008 87 107 0.0 3.0 0.00 0.05 0.05 75 1013.4
20260905231525 88 79 0.0 3.0 0.00 0.05 0.05 74 1013.5
20260905231011 88 89 0.0 3.0 0.00 0.05 0.05 73 1013.5
20260905230508 89 80 0.0 6.0 0.00 0.05 0.05 73 1013.4
20260905230029 90 94 1.0 6.0 0.00 0.05 0.05 73 1013.5
20260905225519 90 110 0.0 4.0 0.00 0.05 0.05 73 1013.5
20260905225012 90 89 0.0 7.0 0.00 0.05 0.05 72 1013.6
20260905224529 90 69 1.0 7.0 0.00 0.05 0.05 73 1013.5
20260905224012 89 34 0.0 3.0 0.00 0.05 0.05 73 1013.5
20260905223520 89 92 0.0 7.0 0.00 0.05 0.05 74 1013.5
20260905223020 88 101 3.0 7.0 0.01 0.05 0.05 74 1013.5
20260905222514 89 42 0.0 4.0 0.01 0.05 0.05 76 1013.5
20260905222007 89 86 0.0 4.0 0.02 0.05 0.05 75 1013.5
20260905221517 89 49 0.0 4.0 0.02 0.05 0.05 75 1013.7
20260905221010 89 67 1.0 4.0 0.02 0.05 0.05 78 1013.5
20260905220510 88 360 0.0 0.0 0.02 0.05 0.05 78 1013.4
20260905220026 87 360 0.0 0.0 0.04 0.05 0.05 80 1013.3
20260905215509 86 360 0.0 0.0 0.05 0.05 0.05 81 1013.2
20260905215011 86 360 0.0 1.0 0.05 0.05 0.05 80 1013.2
20260905214533 85 360 0.0 1.0 0.05 0.05 0.05 80 1013.2
20260905214018 85 327 0.0 2.0 0.05 0.05 0.05 78 1013.2
20260905213509 85 189 0.0 2.0 0.05 0.05 0.05 78 1013.1
20260905213030 85 286 0.0 4.0 0.04 0.04 0.04 74 1013.2
20260905212519 85 290 0.0 9.0 0.04 0.04 0.04 75 1013.3
20260905212008 85 272 0.0 9.0 0.03 0.03 0.03 75 1013.5
20260905211531 86 236 1.0 8.0 0.03 0.03 0.03 78 1013.4
20260905211017 86 331 0.0 3.0 0.03 0.03 0.03 76 1013.2
20260905210507 87 36 0.0 4.0 0.03 0.03 0.03 74 1013.3
20260905210023 87 323 0.0 7.0 0.01 0.01 0.01 70 1013.4
20260905205510 88 17 2.0 10.0 0.00 0.00 0.00 67 1013.2
20260905205013 88 23 1.0 12.0 0.00 0.00 0.00 67 1013.2
20260905204519 88 340 4.0 12.0 0.00 0.00 0.00 68 1013.3
20260905204012 88 10 6.0 17.0 0.00 0.00 0.00 67 1013.3
20260905203515 88 328 10.0 18.0 0.00 0.00 0.00 65 1013.4
20260905203031 89 352 8.0 20.0 0.00 0.00 0.00 65 1013.3
20260905202510 89 329 9.0 20.0 0.00 0.00 0.00 63 1013.3
20260905202013 90 322 10.0 18.0 0.00 0.00 0.00 60 1013.3
20260905201534 93 334 10.0 18.0 0.00 0.00 0.00 59 1013.2
20260905201018 95 360 8.0 14.0 0.00 0.00 0.00 59 1013.1
20260905200513 95 342 6.0 12.0 0.00 0.00 0.00 60 1013.1
20260905200034 95 296 1.0 12.0 0.00 0.00 0.00 60 1013.1
20260905195510 95 332 3.0 13.0 0.00 0.00 0.00 58 1013.3
20260905195012 95 334 4.0 13.0 0.00 0.00 0.00 58 1013.2
20260905194525 96 295 1.0 13.0 0.00 0.00 0.00 58 1013.2
20260905194014 97 279 6.0 13.0 0.00 0.00 0.00 56 1013.3
20260905193517 98 271 6.0 11.0 0.00 0.00 0.00 57 1013.3
20260905193032 98 326 3.0 13.0 0.00 0.00 0.00 57 1013.3
20260905192515 98 257 8.0 13.0 0.00 0.00 0.00 57 1013.2
20260905192013 97 193 4.0 13.0 0.00 0.00 0.00 58 1013.4
20260905191530 97 265 2.0 11.0 0.00 0.00 0.00 57 1013.5
20260905191012 96 286 2.0 12.0 0.00 0.00 0.00 62 1013.5
20260905190515 96 241 4.0 12.0 0.00 0.00 0.00 58 1013.6
20260905190045 96 208 5.0 12.0 0.00 0.00 0.00 63 1013.7
20260905185515 96 203 5.0 12.0 0.00 0.00 0.00 64 1013.8
20260905185015 95 218 4.0 11.0 0.00 0.00 0.00 63 1013.7
20260905184541 95 232 4.0 11.0 0.00 0.00 0.00 63 1013.7
20260905184011 95 266 6.0 11.0 0.00 0.00 0.00 60 1013.8
20260905183513 96 252 6.0 14.0 0.00 0.00 0.00 61 1013.8
20260905183031 96 282 3.0 14.0 0.00 0.00 0.00 60 1013.9
20260905182502 96 229 2.0 11.0 0.00 0.00 0.00 62 1014.0
20260905182002 96 269 2.0 11.0 0.00 0.00 0.00 64 1014.1
20260905181508 96 232 6.0 11.0 0.00 0.00 0.00 64 1014.1
20260905181004 96 228 4.0 11.0 0.00 0.00 0.00 61 1014.1
20260905180504 96 222 1.0 8.0 0.00 0.00 0.00 64 1014.1
20260905180009 96 234 3.0 13.0 0.00 0.00 0.00 62 1014.2
20260905175504 95 207 5.0 13.0 0.00 0.00 0.00 62 1014.2
20260905175010 95 264 3.0 11.0 0.00 0.00 0.00 63 1014.3
20260905174525 95 262 5.0 11.0 0.00 0.00 0.00 62 1014.4
20260905174002 95 219 2.0 11.0 0.00 0.00 0.00 68 1014.4
20260905173506 94 250 4.0 10.0 0.00 0.00 0.00 66 1014.4
20260905173022 94 235 1.0 10.0 0.00 0.00 0.00 65 1014.6
20260905172510 94 259 0.0 10.0 0.00 0.00 0.00 66 1014.7
20260905172003 94 236 3.0 9.0 0.00 0.00 0.00 65 1014.8
20260905171503 94 226 0.0 10.0 0.00 0.00 0.00 64 1014.8
20260905171002 94 229 5.0 10.0 0.00 0.00 0.00 66 1014.9
20260905170505 94 240 2.0 11.0 0.00 0.00 0.00 64 1015.0
20260905170011 94 238 0.0 11.0 0.00 0.00 0.00 65 1015.1
20260905165504 94 258 3.0 9.0 0.00 0.00 0.00 70 1015.2
20260905165006 94 176 3.0 7.0 0.00 0.00 0.00 68 1015.3
20260905164513 94 214 0.0 11.0 0.00 0.00 0.00 68 1015.4
20260905164006 93 240 3.0 11.0 0.00 0.00 0.00 71 1015.6
20260905163509 93 232 2.0 9.0 0.00 0.00 0.00 71 1015.6
20260905163008 93 248 2.0 7.0 0.00 0.00 0.00 70 1015.6
20260905162510 93 241 1.0 6.0 0.00 0.00 0.00 69 1015.7
20260905162010 93 217 1.0 6.0 0.00 0.00 0.00 70 1015.7
20260905161527 93 267 1.0 6.0 0.00 0.00 0.00 71 1015.8
20260905161007 93 237 1.0 6.0 0.00 0.00 0.00 71 1015.8
20260905160511 93 214 1.0 6.0 0.00 0.00 0.00 72 1015.8
20260905160015 92 227 1.0 5.0 0.00 0.00 0.00 73 1015.9
20260905155504 92 213 0.0 5.0 0.00 0.00 0.00 72 1016.0
20260905155003 91 207 0.0 4.0 0.00 0.00 0.00 73 1016.0
20260905154513 91 261 0.0 5.0 0.00 0.00 0.00 77 1016.1
20260905154006 91 235 0.0 5.0 0.00 0.00 0.00 74 1016.3
20260905153504 91 198 1.0 7.0 0.00 0.00 0.00 77 1016.2
20260905153022 91 269 1.0 7.0 0.00 0.00 0.00 76 1016.2
20260905152508 90 243 0.0 6.0 0.00 0.00 0.00 78 1016.1
20260905152012 90 226 1.0 6.0 0.00 0.00 0.00 78 1016.2
20260905151515 89 191 0.0 5.0 0.00 0.00 0.00 80 1016.1
20260905151009 89 253 0.0 6.0 0.00 0.00 0.00 77 1016.2
20260905150513 89 236 0.0 6.0 0.00 0.00 0.00 80 1016.2
20260905150009 89 264 0.0 2.0 0.00 0.00 0.00 82 1016.2
20260905145508 88 240 0.0 2.0 0.00 0.00 0.00 82 1016.0
20260905145011 87 177 0.0 3.0 0.00 0.00 0.00 83 1016.0
20260905144516 87 230 0.0 3.0 0.00 0.00 0.00 83 1016.0
20260905144006 86 206 0.0 3.0 0.00 0.00 0.00 85 1016.1
20260905143510 86 214 0.0 4.0 0.00 0.00 0.00 85 1016.1
20260905143015 85 234 0.0 4.0 0.00 0.00 0.00 84 1016.1
20260905142503 85 257 0.0 6.0 0.00 0.00 0.00 85 1016.0
20260905142009 85 196 1.0 6.0 0.00 0.00 0.00 86 1015.9
20260905141526 85 225 0.0 5.0 0.00 0.00 0.00 88 1016.0
20260905141010 84 299 0.0 5.0 0.00 0.00 0.00 87 1016.0
20260905140504 84 229 1.0 5.0 0.00 0.00 0.00 89 1016.0
20260905140024 83 232 0.0 3.0 0.00 0.00 0.00 90 1016.1
20260905135513 83 219 0.0 3.0 0.00 0.00 0.00 91 1016.1
20260905135006 83 227 0.0 2.0 0.00 0.00 0.00 92 1016.0
20260905134517 82 145 0.0 2.0 0.00 0.00 0.00 92 1016.0
20260905134015 82 209 0.0 2.0 0.00 0.00 0.00 92 1016.0
20260905133503 81 205 0.0 4.0 0.00 0.00 0.00 93 1016.1
20260905133015 81 232 0.0 4.0 0.00 0.00 0.00 94 1016.0
20260905132504 80 231 0.0 4.0 0.00 0.00 0.00 95 1016.0
20260905132010 80 195 0.0 1.0 0.00 0.00 0.00 95 1016.0
20260905131520 80 165 0.0 0.0 0.00 0.00 0.00 95 1015.9
20260905131006 79 175 0.0 0.0 0.00 0.00 0.00 95 1016.0
20260905130514 79 16 0.0 0.0 0.00 0.00 0.00 95 1016.0
20260905130028 79 5 0.0 0.0 0.00 0.00 0.00 95 1016.1
20260905125508 78 5 0.0 0.0 0.00 0.00 0.00 95 1016.1
20260905125016 78 5 0.0 0.0 0.00 0.00 0.00 95 1016.0
20260905124528 78 5 0.0 0.0 0.00 0.00 0.00 95 1016.1
20260905124014 78 5 0.0 0.0 0.00 0.00 0.00 95 1016.1
20260905123507 77 211 0.0 0.0 0.00 0.00 0.00 95 1016.1